Showing default

QIANFAN-66, 62796

Orbit data source: Space-Track

QIANFAN-66, 62796 is a Chinese payload satellite in LEO that was launched on Thu, 23 Jan 2025 UTC via a CHANG ZHENG 6A launch vehicle from the Taiyaun Space Center, China (TSC). Payload-class satellites include a variety of spacecraft equipped with specific instruments for various scientific and technological missions. These include communications satellites like Starlink; space stations such as the ISS; scientific satellites like the Hubble; Earth observation satellites from companies like Planet Labs, Umbra, and HawkEye 360; GPS; miniature CubeSats for education and research; and military/defense satellites.

Loading next visibility...
Identifier
62796, 2025-016M
Orbit
LEO
Country
Flag of CNCN / PRC
Related business
Manufacturer
SECM
Mission
Operational Commercial Communications
Bus & Motor
QIANFAN, Unknown motor
Mass
267 kg wet, ~267 kg dry
Launch date (UTC)
2025-01-23 (1 year ago)
Launch vehicle
CHANG ZHENG 6A
Launch site
Taiyaun Space Center, China (TSC)
Object type
Payload
Rocket body
Debris
Shape & HBR
Box + 1 Pan, 1.3 m
Radar Cross Section
13.200 m², Large (>1 m²)

Expand to show TLE details & history
Last TLE update: 5 hours ago

TLE from 5 hours ago
0 QIANFAN-66
1 62796U 25016M   26035.82606481  .00000123  00000-0  17138-3 0  9994
2 62796  88.9740  97.4457 0015637 175.2531 184.8771 13.50993915 54594
Epoch: 2026-02-04T19:49Z
TLE epoch observation values (Epoch: 2026-02-04T19:49:31.999Z)
Latitude
-0.00006°
Longitude
25.07529°
Altitude
1,083.162 km
Speed
7.305 km/s
True Right ascension
06h 29m 46s
True Declination
0° 00' 00"
Sunlit
Object was in full shadow at epoch
Visualization orbit readout
Latitude
Unknown
Longitude
Unknown
Altitude
Unknown
Speed
Unknown
Apparent Right ascension
Unknown
Apparent Declination
Unknown
Sunlit
N/A
Visualization observer readout
Local Sidereal Time
03:18:47
Azimuth
Unknown
Elevation
Unknown
Doppler factor
Unknown
Orbital elements
Apogee altitude
1,077.295 km
Perigee altitude
1,054.015 km
Semi-major axis
7,443.792 km
Eccentricity
0.00156
Inclination
88.974°
RAAN
97.4457°
Arg. of periapsis
175.2531°
True anomaly
184.8619°
Mean anomaly
184.8771°
Eccentric anomaly
184.86949°
Mean motion
3.3795 °/min
Orbital period
106.52 mins
BSTAR
0.00017138
Loading maneuver chart data...
Computing Atmospheric mass density...
Loading historical data...
Loading historical data...
Loading historical data...
Loading historical data...
Loading historical data...
Loading historical data...
Loading historical data...

Documentation

Showing up to 5 results
|